Station RLIT2 - 8779280 - Realitos Peninsula, TX Image indicating link to RSS feed of recent meteorological observations for station RLIT2


Conditions at RLIT2 as of
(4:48 am CDT)
0948 GMT on 06/17/2024:
     

Click on the graph icon in the table below to see a time series plot of the last five days of that observation.

5-day plot - Wind Direction Wind Direction (WDIR):SSE ( 150 deg true )
5-day plot - Wind Speed Wind Speed (WSPD): 7.0 kts
5-day plot - Wind Gust Wind Gust (GST): 11.1 kts
5-day plot - Atmospheric Pressure Atmospheric Pressure (PRES):29.72 in
5-day plot - Air Temperature Air Temperature (ATMP): 82.6 °F
5-day plot - Water Temperature Water Temperature (WTMP): 85.1 °F
5-day plot - Wind Speed at 10 Meters Wind Speed at 10 meters (WSPD10M): 7.8 kts
5-day plot - Wind Speed at 20 Meters Wind Speed at 20 meters (WSPD20M): 7.8 kts
5-day plot -  Wind Speed, Wind Gust and Atmospheric Pressure Combined plot of Wind Speed, Gust, and Air Pressure
Previous observations
TIME
(CDT)
5-day plot - Wind Direction
WDIR
 
5-day plot - Wind Speed
WSPD
kts
5-day plot - Wind Gust
GST
kts
5-day plot - Wave Height
WVHT
ft
5-day plot - Dominant Wave Period
DPD
sec
5-day plot - Average Wave Period
APD
sec
5-day plot - Mean Wave Direction
MWD
 
5-day plot - Atmospheric Pressure
PRES
in
5-day plot - Pressure Tendency
PTDY
in
5-day plot - Air Temperature
ATMP
°F
5-day plot - Water Temperature
WTMP
°F
5-day plot - Dew Point
DEWP
°F
5-day plot - Salinity
SAL
psu
5-day plot - Visibility
VIS
nmi
5-day plot - Tide (above MLLW)
TIDE
ft
2024-06-17 04:42 amSSE 9.9 14.0----29.72- 82.9 85.3----
2024-06-17 04:36 am SE 15.0 18.1----29.72- 82.9 85.3----
2024-06-17 04:30 am SE 15.9 19.0----29.72- 83.7 85.3----
2024-06-17 04:24 am SE 12.0 17.1----29.72- 82.4 85.1----
2024-06-17 04:18 amESE 15.0 17.1----29.72- 83.5 84.9----
2024-06-17 04:12 am SE 12.0 13.0----29.72- 83.7 84.7----
2024-06-17 04:06 am SE 9.9 12.0----29.73- 83.3 84.7----
2024-06-17 04:00 am SE 9.9 13.0----29.73-0.04 82.9 84.7----
2024-06-17 03:54 amSSE 7.0 11.1----29.73- 82.4 84.7----
2024-06-17 03:48 amSSE 9.9 13.0----29.73- 81.7 84.6----
2024-06-17 03:42 amSSE 12.0 18.1----29.73- 80.8 84.6----
2024-06-17 03:36 amSSE 15.9 25.1----29.73- 79.7 84.4----
2024-06-17 03:30 am SE 17.1 20.0----29.73- 82.0 84.4----
2024-06-17 03:24 amESE 14.0 17.1----29.73- 84.7 84.4----
2024-06-17 03:18 amESE 13.0 18.1----29.73- 84.6 84.4----
2024-06-17 03:12 amESE 14.0 18.1----29.73- 84.7 84.4----
2024-06-17 03:06 amESE 14.0 18.1----29.73- 85.3 84.4----
2024-06-17 03:00 amESE 15.0 18.1----29.73-0.04 85.1 84.4----
2024-06-17 02:54 amESE 14.0 17.1----29.74- 85.1 84.6----
2024-06-17 02:48 am SE 14.0 18.1----29.74- 84.9 84.7----
2024-06-17 02:42 amESE 14.0 18.1----29.74- 84.9 84.9----
2024-06-17 02:36 amESE 15.0 19.0----29.74- 85.1 85.3----
2024-06-17 02:30 am SE 14.0 18.1----29.75- 85.1 85.5----
2024-06-17 02:24 amESE 15.0 17.1----29.75- 85.1 86.0----
2024-06-17 02:18 amESE 15.0 17.1----29.75- 85.1 86.2----
2024-06-17 02:12 amESE 15.0 17.1----29.75- 85.1 86.4----
2024-06-17 02:06 am SE 13.0 18.1----29.75- 84.9 86.4----
2024-06-17 02:00 amESE 15.0 18.1----29.75-0.02 85.1 86.4----
2024-06-17 01:54 amESE 14.0 17.1----29.75- 85.3 86.4----
2024-06-17 01:48 amESE 13.0 18.1----29.76- 85.3 86.4----
2024-06-17 01:42 amESE 14.0 17.1----29.76- 85.3 86.5----
2024-06-17 01:36 amESE 15.0 17.1----29.76- 85.5 86.5----
2024-06-17 01:30 amESE 14.0 17.1----29.76- 85.3 86.5----
2024-06-17 01:24 amESE 15.0 18.1----29.76- 85.3 86.7----
2024-06-17 01:18 amESE 15.9 19.0----29.76- 85.6 86.7----
2024-06-17 01:12 amESE 15.0 18.1----29.76- 85.3 86.9----
2024-06-17 01:06 amESE 15.9 19.0----29.76- 85.5 87.1----
2024-06-17 01:00 amESE 15.0 19.0----29.76+0.00 85.3 87.3----
2024-06-17 12:54 am SE 15.0 19.0----29.77- 85.5 87.4----
2024-06-17 12:48 amESE 17.1 19.0----29.77- 85.5 87.6----
2024-06-17 12:42 am SE 15.9 19.0----29.77- 85.5 87.8----
2024-06-17 12:36 amESE 15.9 19.0----29.77- 85.5 87.8----
2024-06-17 12:30 amESE 15.9 20.0----29.77- 85.5 87.8----
2024-06-17 12:24 amESE 15.0 19.0----29.77- 85.5 87.6----
2024-06-17 12:18 amESE 17.1 21.0------ 85.6 87.6----
2024-06-17 12:12 amESE 15.9 19.0------ 85.5 87.4----
2024-06-17 12:06 amESE 18.1 20.0------ 85.6 87.3----
2024-06-17 12:00 amESE 18.1 22.9----29.78+0.03- 86.9----
2024-06-16 11:54 pmESE 17.1 20.0----29.78-- 86.7----
2024-06-16 11:48 pmESE 17.1 21.0----29.78-- 86.7----
2024-06-16 11:42 pmESE 18.1 22.0----29.78-- 86.7----
2024-06-16 11:36 pmESE 19.0 22.0----29.78-- 86.9----
2024-06-16 11:30 pmESE 20.0 22.0----29.77-- 86.9----
2024-06-16 11:24 pmESE 18.1 21.0----29.78-- 87.3----
2024-06-16 11:18 pmESE 17.1 20.0----29.78- 85.6 87.8----
2024-06-16 11:12 pmESE 17.1 22.0----29.78- 85.8 88.2----
2024-06-16 11:06 pmESE 19.0 22.9----29.78- 85.6 88.5----
2024-06-16 11:00 pm-------29.77+0.04 85.6 88.9----
2024-06-16 10:54 pm-------29.77- 85.8 89.1----
2024-06-16 10:48 pmESE 19.0 24.1----29.77-- 89.1----
2024-06-16 10:42 pm E 21.0 24.1----29.77-- 89.2----
2024-06-16 10:36 pmESE 20.0 22.0----29.77-- 89.2----
2024-06-16 10:30 pmESE 20.0 22.9----29.77- 85.8 89.6----
2024-06-16 10:24 pm E 19.0 22.9----29.77- 86.0 89.8----
2024-06-16 10:18 pm E 19.0 22.0----29.77- 85.8 90.0----
2024-06-16 10:12 pm E 17.1 21.0----29.77- 86.0 90.0----
2024-06-16 10:06 pm E 19.0 21.0----29.77- 85.6 90.1----
2024-06-16 10:00 pmESE 18.1 22.0----29.77+0.04 85.8 90.1----
2024-06-16 09:54 pm E 20.0 22.0----29.76- 86.0 90.1----
2024-06-16 09:48 pm E 20.0 22.9----29.76- 85.8 90.3----
2024-06-16 09:42 pm E 20.0 22.0----29.76- 85.8 90.3----
2024-06-16 09:36 pm E 19.0 22.0----29.76- 86.0 90.5----
2024-06-16 09:30 pm E 19.0 21.0----29.75- 86.0 90.5----
2024-06-16 09:24 pm E 18.1 21.0----29.75- 86.0 90.7----
2024-06-16 09:18 pm E 19.0 22.0----29.75- 86.2 90.9----
2024-06-16 09:12 pm E 19.0 21.0----29.75- 86.0 90.9----
2024-06-16 09:06 pm E 19.0 21.0----29.75- 86.0 91.0----
2024-06-16 09:00 pm E 18.1 20.0----29.75+0.03 86.0 91.0----
2024-06-16 08:54 pm E 17.1 21.0----29.75- 86.0 91.2----
2024-06-16 08:48 pm E 18.1 22.0----29.74- 86.0 91.4----
2024-06-16 08:42 pm E 17.1 21.0----29.74- 86.4 91.6----
2024-06-16 08:36 pm E 18.1 22.0----29.74- 86.2 91.8----
2024-06-16 08:30 pm E 17.1 20.0------ 86.5 91.8----
2024-06-16 08:24 pm E 18.1 21.0------ 86.2 91.9----
2024-06-16 08:18 pm E 17.1 20.0------ 86.0 92.1----
2024-06-16 08:12 pm E 19.0 22.0------ 86.4 92.1----
2024-06-16 08:06 pm E 18.1 21.0------ 86.2 92.3----
2024-06-16 08:00 pm E 19.0 21.0----29.73-0.01- 92.3----
2024-06-16 07:54 pm E 18.1 20.0----29.73-- 92.5----
2024-06-16 07:48 pm E 17.1 20.0----29.73-- 92.5----
2024-06-16 07:42 pm E 17.1 20.0----29.73-- 92.7----
2024-06-16 07:36 pm E 18.1 21.0----29.73-- 92.7----
2024-06-16 07:30 pm E 17.1 21.0----29.72-- 92.8----
2024-06-16 07:24 pm E 17.1 19.0----29.73-- 92.8----
2024-06-16 07:18 pm E 17.1 19.0----29.73- 86.9 92.8----
2024-06-16 07:12 pm E 15.9 20.0----29.73- 86.9 93.0----
2024-06-16 07:06 pm E 17.1 19.0----29.72- 86.9 93.0----
2024-06-16 07:00 pm E 17.1 20.0----29.72-0.03 86.7 93.0----
2024-06-16 06:54 pm E 17.1 19.0----29.72- 87.1 93.2----
2024-06-16 06:48 pmENE 17.1 19.0----29.72- 87.1 93.2----
2024-06-16 06:42 pm E 15.9 19.0----29.72- 87.3 93.2----
2024-06-16 06:36 pm E 17.1 19.0----29.72- 87.3 93.2----
2024-06-16 06:30 pm E 17.1 19.0----29.72- 87.3 93.2----
2024-06-16 06:24 pm E 15.9 19.0----29.72- 87.4 93.2----
2024-06-16 06:18 pm E 15.0 17.1----29.73- 87.3 93.2----
2024-06-16 06:12 pm E 14.0 17.1----29.72- 87.4 93.2----
2024-06-16 06:06 pm E 15.0 17.1----29.72- 87.4 93.0----
2024-06-16 06:00 pm E 13.0 15.9----29.72-0.04- 93.0----
2024-06-16 05:54 pm E 14.0 17.1----29.72-- 93.0----
2024-06-16 05:48 pm E 14.0 17.1----29.72- 87.1 93.0----
2024-06-16 05:42 pm E 13.0 17.1----29.72- 87.4 93.0----
2024-06-16 05:36 pm E 14.0 17.1----29.72- 87.3 92.8----
2024-06-16 05:30 pm E 15.0 17.1------ 86.9 92.8----
2024-06-16 05:24 pm E 15.9 19.0------ 87.3 92.8----
2024-06-16 05:18 pm E 15.9 18.1----29.73- 87.3 92.8----
2024-06-16 05:12 pm E 15.0 17.1----29.73- 87.4 92.7----
2024-06-16 05:06 pm E 15.0 15.9----29.73- 87.4 92.7----
2024-06-16 05:00 pm E 14.0 15.9----29.74-0.04 87.3 92.7----
2024-06-16 04:54 pmENE 12.0 14.0----29.74- 87.4 92.7----
2024-06-16 04:48 pm E 13.0 15.0----29.74-------
2024-06-16 04:42 pm E 12.0 15.9----29.74-------
2024-06-16 04:36 pm E 13.0 14.0----29.75-------
2024-06-16 04:30 pm E 13.0 14.0----29.75- 87.1 92.3----
2024-06-16 04:24 pm E 12.0 15.0----29.75- 87.3 92.1----
2024-06-16 04:18 pm E 12.0 14.0----29.75-- 92.1----
2024-06-16 04:12 pm E 13.0 15.0----29.75-- 91.9----
2024-06-16 04:06 pm E 13.0 15.9----29.75-- 91.8----
2024-06-16 04:00 pm E 13.0 15.0----29.75-0.04 87.1 91.8----
2024-06-16 03:54 pm E 14.0 15.9----29.75- 86.9 91.6----
2024-06-16 03:48 pm E 13.0 15.0----29.75-- 91.6----
2024-06-16 03:42 pm E 13.0 15.0----29.76-- 91.6----
2024-06-16 03:36 pm E 13.0 15.0----29.76-- 91.6----
2024-06-16 03:30 pm E 12.0 15.0----29.76- 86.9 91.4----
2024-06-16 03:24 pm E 11.1 14.0----29.76- 87.3 91.4----
2024-06-16 03:18 pm E 11.1 13.0----29.76- 86.9 91.4----
2024-06-16 03:12 pm E 12.0 14.0----29.76- 86.9 91.4----
2024-06-16 03:06 pm E 12.0 14.0----29.76- 86.9 91.4----
2024-06-16 03:00 pm E 12.0 14.0----29.76-0.04 87.1 91.4----
2024-06-16 02:54 pm E 12.0 14.0----29.77- 87.6 91.4----
2024-06-16 02:48 pm E 12.0 15.0----29.77- 87.1 91.2----
2024-06-16 02:42 pm E 12.0 14.0----29.77- 86.7 91.0----
2024-06-16 02:36 pm E 11.1 14.0----29.77- 87.1 90.7----
2024-06-16 02:30 pm E 11.1 13.0----29.77-- 90.7----
2024-06-16 02:24 pm E 12.0 13.0----29.77-- 90.5----
2024-06-16 02:18 pm E 11.1 13.0----29.78- 87.3 90.5----
2024-06-16 02:12 pm E 9.9 12.0----29.78- 87.3 90.1----
2024-06-16 02:06 pm E 8.9 11.1----29.78- 87.6 90.0----
2024-06-16 02:00 pmESE 8.9 11.1----29.78-0.03- 89.6----
2024-06-16 01:54 pm E 8.9 12.0----29.78-- 89.6----
2024-06-16 01:48 pm E 9.9 11.1----29.79-- 89.4----
2024-06-16 01:42 pmESE 8.9 11.1----29.79-- 88.9----
2024-06-16 01:36 pm E 8.9 11.1----29.79-- 88.5----
2024-06-16 01:30 pm E 8.0 9.9----29.79- 87.4 88.2----
2024-06-16 01:24 pmESE 8.0 11.1----29.79- 87.8 87.8----
2024-06-16 01:18 pm E 8.0 11.1----29.80- 87.3 87.8----
2024-06-16 01:12 pm E 8.9 11.1----29.80- 87.4 87.8----
2024-06-16 01:06 pm E 8.9 11.1----29.80- 86.9 88.0----
2024-06-16 01:00 pm E 8.9 11.1----29.80+0.00 87.4 88.0----
2024-06-16 12:54 pmESE 8.0 9.9----29.80- 86.9 88.0----
2024-06-16 12:48 pm E 7.0 9.9----29.80- 87.8 88.2----
2024-06-16 12:42 pmESE 8.0 8.9----29.80- 87.8 88.2----
2024-06-16 12:36 pmESE 8.9 11.1----29.80- 87.1 88.0----
2024-06-16 12:30 pmESE 8.9 11.1----29.80- 87.8 88.0----
2024-06-16 12:24 pmESE 8.0 11.1----29.80- 88.2 88.0----
2024-06-16 12:18 pmESE 8.0 9.9----29.80- 88.5 88.0----
2024-06-16 12:12 pmESE 7.0 9.9----29.80- 87.8 87.8----
2024-06-16 12:06 pmESE 8.9 12.0----29.80- 86.5 87.8----
2024-06-16 12:00 pm E 8.9 11.1----29.80+0.00 86.5 87.6----
2024-06-16 11:54 amESE 8.9 11.1----29.81- 86.4 87.6----
2024-06-16 11:48 amESE 8.9 11.1----29.81-- 87.4----
2024-06-16 11:42 amESE 8.9 11.1----29.81-- 87.1----
2024-06-16 11:36 amESE 8.0 9.9----29.81-- 86.7----
2024-06-16 11:30 amESE 8.9 11.1----29.81-- 86.4----
2024-06-16 11:24 amESE 9.9 11.1----29.82-- 86.2----
2024-06-16 11:18 amESE 8.9 11.1----29.82- 87.1-----
2024-06-16 11:12 amESE 8.9 11.1----29.81- 87.1-----
2024-06-16 11:06 amESE 9.9 13.0----29.82- 86.9-----
2024-06-16 11:00 amESE 8.9 13.0----29.81+0.02 87.4 85.3----
2024-06-16 10:54 amESE 8.9 12.0----29.81- 86.7 85.1----
2024-06-16 10:48 amESE 9.9 12.0----29.81-- 84.9----
2024-06-16 10:42 amESE 8.9 9.9----29.80-- 84.7----
2024-06-16 10:36 amESE 8.0 11.1----29.80-- 84.7----
2024-06-16 10:30 am SE 8.9 9.9----29.80- 86.7 84.6----
2024-06-16 10:24 amESE 8.0 9.9----29.80- 87.3 84.4----
2024-06-16 10:18 amESE 8.9 9.9----29.80-- 84.4----
2024-06-16 10:12 am SE 8.0 11.1----29.80-- 84.4----
2024-06-16 10:06 amESE 8.0 11.1----29.80-- 84.4----
2024-06-16 10:00 am SE 7.0 8.9----29.80+0.03 86.7 84.2----
2024-06-16 09:54 amESE 8.9 9.9----29.80- 86.2 84.2----
2024-06-16 09:48 amESE 7.0 8.9----29.80-- 84.2----
2024-06-16 09:42 am SE 6.0 8.9----29.80-- 84.0----
2024-06-16 09:36 am SE 7.0 8.9----29.80-- 84.0----
2024-06-16 09:30 am-------29.80-- 84.0----
2024-06-16 09:24 am-------29.81-- 84.0----
2024-06-16 09:18 am SE 7.0 8.0----29.80- 85.8 84.0----
2024-06-16 09:12 amSSE 6.0 8.9----29.80- 85.3 84.0----
2024-06-16 09:06 amSSE 6.0 8.9----29.81- 85.3 84.0----
2024-06-16 09:00 amSSE 7.0 8.9----29.81+0.03- 84.0----
2024-06-16 08:54 am SE 7.0 8.9----29.80-- 84.0----
2024-06-16 08:48 amSSE 7.0 8.9----29.80- 85.6 84.0----
2024-06-16 08:42 amSSE 6.0 8.9----29.80- 85.5 84.2----
2024-06-16 08:36 am SE 7.0 8.9----29.80- 85.8 84.2----
2024-06-16 08:30 amSSE 7.0 8.9----29.80- 85.5 84.2----
2024-06-16 08:24 amSSE 7.0 8.9----29.80- 85.6 84.2----
2024-06-16 08:18 amSSE 7.0 8.9----29.80-- 84.2----
2024-06-16 08:12 amSSE 8.0 9.9----29.80-- 84.4----
2024-06-16 08:06 amSSE 7.0 9.9----29.79-- 84.4----
2024-06-16 08:00 amSSE 8.0 9.9----29.79+0.01 84.7 84.4----
2024-06-16 07:54 amSSE 7.0 9.9----29.79- 84.9 84.6----
2024-06-16 07:48 amSSE 8.0 9.9----29.79- 84.9 84.6----
2024-06-16 07:42 amSSE 7.0 8.9----29.79- 84.9 84.7----
2024-06-16 07:36 amSSE 7.0 8.9----29.79- 84.7 84.7----
2024-06-16 07:30 amSSE 8.9 9.9----29.79- 84.7 84.7----
2024-06-16 07:24 amSSE 7.0 9.9----29.78- 84.7 84.7----
2024-06-16 07:18 am-------29.78- 84.4 84.7----
2024-06-16 07:12 am-------29.78- 84.4 84.9----
2024-06-16 07:06 am-------29.78- 84.0 84.9----
2024-06-16 07:00 amSSE 8.9 12.0----29.78+0.00 84.4 85.1----
2024-06-16 06:54 amSSE 8.9 12.0----29.78- 84.0 85.1----
2024-06-16 06:48 am SE 9.9 13.0----29.77- 84.4 85.1----
2024-06-16 06:42 am SE 9.9 11.1----29.78- 84.2 85.1----
2024-06-16 06:36 amSSE 11.1 13.0----29.78- 84.0 85.1----
2024-06-16 06:30 am SE 8.9 11.1----29.78- 84.2 85.1----
2024-06-16 06:24 amSSE 8.9 13.0----29.78- 84.2 85.1----
2024-06-16 06:18 amSSE 9.9 13.0----29.78-- 85.1----
2024-06-16 06:12 am SE 11.1 13.0----29.78-- 84.9----
2024-06-16 06:06 am SE 9.9 14.0----29.78-- 84.9----
2024-06-16 06:00 am SE 11.1 13.0----29.78-- 84.9----
2024-06-16 05:54 amSSE 8.0 11.1----29.78-- 84.9----
2024-06-16 05:48 am SE 9.9 12.0----29.78-- 84.7----
2024-06-16 05:42 amSSE 9.9 12.0----29.78-- 84.7----
2024-06-16 05:36 amSSE 9.9 12.0----29.78-- 84.7----
2024-06-16 05:30 am SE 9.9 12.0----29.78-- 84.7----
2024-06-16 05:24 am SE 11.1 13.0----29.78-- 84.7----
2024-06-16 05:18 am SE 11.1 13.0----29.78- 84.6 84.7----
2024-06-16 05:12 am SE 11.1 13.0----29.78- 84.4 84.7----
2024-06-16 05:06 am SE 12.0 14.0----29.78- 84.7 84.7----
2024-06-16 05:00 am SE 12.0 14.0----29.78-0.03- 84.7----
2024-06-16 04:54 amSSE 11.1 13.0----29.78-- 84.7----